BMCB-9 Weather Reports


Display with metric or nautical units.
time (UTC)temp
F
wind
direction
speed
MPH
gust
MPH
rain 1hr
in
rain 24hr
in
rain mn
in
humidity
%
barometer
mb
20260505124056 52 0 0.0 0.0 0.00 0.11 0.09 97 1009.4
20260505123055 52 0 0.0 0.0 0.00 0.11 0.09 97 1009.4
20260505122055 52 0 0.0 0.0 0.00 0.11 0.09 98 1009.3
20260505121054 52 0 0.0 0.0 0.00 0.11 0.09 97 1009.3
20260505120056 53 0 0.0 0.0 0.00 0.11 0.09 97 1009.4
20260505114056 53 0 0.0 0.0 0.00 0.11 0.09 96 1009.5
20260505111056 53 0 0.0 0.0 0.00 0.11 0.09 96 1009.6
20260505102055 53 0 0.0 0.0 0.00 0.11 0.09 98 1009.8
20260505101057 53 0 0.0 0.0 0.00 0.11 0.09 98 1009.7
20260505095055 53 0 0.0 0.0 0.00 0.11 0.09 99 1009.8
20260505094056 53 0 0.0 0.0 0.00 0.11 0.09 99 1009.8
20260505093056 53 0 0.0 0.0 0.00 0.11 0.09 99 1009.8
20260505092056 53 0 0.0 0.0 0.00 0.11 0.09 99 1009.8
20260505091056 53 0 0.0 0.0 0.00 0.11 0.09 99 1009.8
20260505090054 53 0 0.0 0.0 0.00 0.11 0.09 99 1009.9
20260505085056 53 0 0.0 0.0 0.00 0.11 0.09 99 1009.9
20260505084056 53 0 0.0 0.0 0.00 0.11 0.09 99 1009.8
20260505083123 53 0 0.0 0.0 0.00 0.11 0.09 99 1009.8
20260505082057 53 0 0.0 0.0 0.00 0.11 0.09 98 1010.0
20260505081054 53 0 0.0 0.0 0.00 0.11 0.09 98 1010.0
20260505080055 53 0 0.0 0.0 0.00 0.11 0.09 98 1009.9
20260505074056 53 0 0.0 0.0 0.00 0.11 0.09 98 1010.0
20260505073055 53 0 0.0 0.0 0.00 0.11 0.09 99 1010.0
20260505072057 53 0 0.0 0.0 0.00 0.11 0.09 99 1010.0
20260505071056 53 0 0.0 0.0 0.00 0.11 0.09 99 1010.0
20260505070051 53 0 0.0 0.0 0.00 0.11 0.09 99 1010.0
20260505065056 53 0 0.0 0.0 0.00 0.11 0.09 99 1010.0
20260505064053 53 0 0.0 0.0 0.01 0.11 0.09 99 1010.0
20260505063055 53 0 0.0 0.0 0.01 0.11 0.09 99 1010.0
20260505062053 53 0 0.0 0.0 0.02 0.11 0.09 99 1010.0
20260505060056 54 0 0.0 0.0 0.03 0.11 0.09 10 1010.0
20260505054056 54 0 0.0 0.0 0.05 0.11 0.09 10 1010.0
20260505053054 54 0 0.0 0.0 0.04 0.10 0.08 10 1010.1
20260505041054 53 0 0.0 0.0 0.02 0.04 0.02 99 1010.1
20260505040055 53 0 0.0 0.0 0.01 0.03 0.01 99 1010.1
20260505035055 53 0 0.0 0.0 0.00 0.02 0.00 99 1010.2
20260505034054 53 0 0.0 0.0 0.00 0.02 0.00 99 1010.2
20260505033055 53 0 0.0 0.0 0.00 0.02 0.00 99 1010.2
20260505031055 53 0 0.0 0.0 0.00 0.02 0.00 99 1010.4
20260505030055 53 0 0.0 0.0 0.00 0.02 0.00 99 1010.5
20260505025055 53 0 0.0 0.0 0.00 0.02 0.00 99 1010.5
20260505024056 53 0 0.0 0.0 0.00 0.02 0.00 99 1010.6
20260505023057 53 0 0.0 0.0 0.00 0.02 0.00 99 1010.7
20260505022054 53 0 0.0 0.0 0.00 0.02 0.00 99 1010.7
20260505015054 53 0 0.0 0.0 0.00 0.02 0.00 99 1010.6
20260505014055 53 0 0.0 0.0 0.00 0.02 0.00 99 1010.6
20260505013053 53 0 0.0 0.0 0.00 0.02 0.00 99 1010.6
20260505012054 53 0 0.0 0.0 0.00 0.02 0.00 99 1010.7
20260505011054 53 0 0.0 0.0 0.00 0.02 0.00 99 1010.7
20260505005057 53 0 0.0 0.0 0.00 0.02 0.00 99 1010.8
20260505004054 53 0 0.0 0.0 0.00 0.02 0.00 99 1011.0
20260505003056 53 0 0.0 0.0 0.00 0.02 0.00 99 1011.1
20260505002054 53 0 0.0 0.0 0.00 0.02 0.00 99 1011.2
20260505001056 53 0 0.0 0.0 0.00 0.02 0.00 99 1011.3
20260504235056 52 0 0.0 0.0 0.00 0.02 0.00 99 1011.5
20260504234056 52 0 0.0 0.0 0.00 0.02 0.00 99 1011.5
20260504233056 52 0 0.0 0.0 0.00 0.02 0.00 99 1011.5
20260504231058 52 0 0.0 0.0 0.00 0.02 0.00 99 1011.7
20260504230056 52 0 0.0 0.0 0.00 0.02 0.00 99 1011.7
20260504225058 52 0 0.0 0.0 0.00 0.02 0.00 98 1011.8
20260504224058 52 0 0.0 0.0 0.00 0.02 0.00 98 1011.9
20260504223057 52 0 0.0 0.0 0.00 0.02 0.00 98 1012.0
20260504222058 52 0 0.0 0.0 0.00 0.02 0.00 98 1012.1
20260504220056 53 0 0.0 0.0 0.00 0.02 0.00 98 1012.3
20260504215058 53 0 0.0 0.0 0.00 0.02 0.02 98 1012.2
20260504214101 53 0 0.0 0.0 0.00 0.02 0.02 98 1012.3
20260504213059 53 0 0.0 0.0 0.00 0.02 0.02 98 1012.4
20260504211059 54 0 0.0 0.0 0.00 0.02 0.02 97 1012.5
20260504210059 54 0 0.0 0.0 0.00 0.02 0.02 97 1012.5
20260504205057 54 0 0.0 0.0 0.00 0.02 0.02 97 1012.5
20260504204059 54 0 0.0 0.0 0.00 0.02 0.02 97 1012.6
20260504203100 54 0 0.0 0.0 0.00 0.02 0.02 97 1012.6
20260504202106 55 0 0.0 0.0 0.00 0.02 0.02 97 1012.6
20260504201103 55 0 0.0 0.0 0.00 0.02 0.02 97 1012.6
20260504200100 55 0 0.0 0.0 0.00 0.02 0.02 96 1012.5
20260504195058 55 0 0.0 0.0 0.00 0.02 0.02 96 1012.4
20260504194058 55 0 0.0 0.0 0.00 0.02 0.02 95 1012.3
20260504193059 55 0 0.0 0.0 0.00 0.02 0.02 95 1012.2
20260504192100 56 0 0.0 0.0 0.00 0.02 0.02 94 1012.2
20260504191100 56 0 0.0 0.0 0.00 0.02 0.02 94 1012.1
20260504190100 57 0 0.0 0.0 0.00 0.02 0.02 93 1012.1
20260504184058 58 0 0.0 0.0 0.00 0.02 0.02 91 1012.0
20260504183100 58 0 0.0 0.0 0.00 0.02 0.02 89 1011.9
20260504182057 58 0 0.0 0.0 0.00 0.02 0.02 88 1011.9
20260504181100 59 0 0.0 0.0 0.00 0.02 0.02 88 1012.0
20260504180058 59 0 0.0 0.0 0.00 0.02 0.02 89 1012.0
20260504175058 59 0 0.0 0.0 0.00 0.02 0.02 89 1012.1
20260504174057 59 0 0.0 0.0 0.00 0.02 0.02 89 1011.9
20260504173059 59 0 0.0 0.0 0.01 0.02 0.02 89 1012.0
20260504172058 59 0 0.0 0.0 0.01 0.02 0.02 90 1012.0
20260504171058 58 0 0.0 0.0 0.01 0.02 0.02 90 1012.0
20260504151057 61 0 0.0 0.0 0.00 0.02 0.02 89 1012.3
20260504140106 61 0 0.0 0.0 0.01 0.02 0.02 89 1012.8